[[{"header":{"parameterUnit":"m.s-1","parameterCategory":1,"la1":30.2991,"la2":30.254,"lo1":-89.0895,"lo2":-89.0444,"dy":0.0017,"dx":0.0017,"nx":28,"ny":28,"refTime":"2024-05-01T21:00:00:Z","depth":0,"parameterNumber":2,"parameterNumberName":"U-component_of_WINDS"},"data":[0,0,0,0,0,0,0,0,0,0,0,0,0,0,0,0,0,0,0,0,0,0,0,0,0,0,0,0,0,0,0,0,0,0,0,0,0,0,0,0,0,0,0,0,0,0,0,0,0,0,0,0,0,0,0,0,0,0,4.5801,4.5804,0,4.6075,4.6078,4.6082,4.6182,4.6182,4.6181,4.618,4.6458,4.6466,4.6475,0,0,0,0,0,0,0,0,0,0,0,0,0,4.5361,4.5369,4.5801,4.5804,4.5808,4.6075,4.6079,4.6082,4.6183,4.6182,4.618,4.6179,4.6456,4.6465,4.6475,0,0,0,0,0,0,0,0,0,0,0,0,0,4.5585,4.5371,4.58,4.589,4.5901,4.6074,4.6079,4.6083,4.6183,4.6182,4.618,4.6179,4.6452,4.6464,4.6477,4.658,0,0,4.6515,4.652,0,0,0,0,0,0,0,0,4.5572,4.5601,4.5873,4.5884,4.5897,4.6093,4.6026,4.625,4.6183,4.6076,4.618,4.6178,4.6338,4.636,4.6414,4.6593,4.6605,4.6516,4.6523,4.6528,4.6532,0,0,0,0,0,0,0,4.5557,4.559,4.5909,4.5877,4.5891,4.5916,4.5946,4.6069,4.6211,4.6085,4.6093,4.6124,4.6344,4.6402,4.6421,4.6609,4.6515,4.6526,4.6534,4.6539,4.6886,4.6888,0,0,0,0,0,0,4.5527,4.5577,4.5901,4.5918,4.5728,4.5925,4.5959,4.6031,4.621,4.6236,4.6125,4.6128,4.6381,4.6407,4.6431,4.6563,4.6528,4.654,4.6547,4.6884,4.6887,4.6888,0,0,0,0,0,0,4.5517,4.5555,4.589,4.575,4.5794,4.5934,4.6015,4.6038,4.6096,4.624,4.6266,4.6158,4.6381,4.6414,4.6542,4.6574,4.6546,4.6557,4.6882,4.6885,4.6887,4.6828,0,0,0,0,0,0,4.5504,4.5551,4.5592,4.575,4.5801,4.5996,4.6017,4.6044,4.6117,4.6123,4.6278,4.6302,4.6383,4.6523,4.6555,4.6591,4.6566,4.688,4.6883,4.6887,4.6828,4.6828,4.6829,0,0,0,0,0,4.5488,4.5564,4.5593,4.5632,4.5856,4.5998,4.6027,4.6119,4.6119,4.6161,4.6254,4.6297,4.6566,4.6536,4.6572,4.6612,4.6878,4.6882,4.6886,4.6828,4.6828,4.6829,0,0,0,0,0,0,4.5405,4.5586,4.5621,4.5751,4.5858,4.6015,4.6071,4.6117,4.6226,4.6227,4.6336,4.637,4.6489,4.6564,4.6527,4.6721,4.6725,4.6736,4.6668,4.667,4.667,4.6649,4.6577,0,0,0,0,0,4.5403,4.5504,4.5656,4.5756,4.5808,4.593,4.5995,4.6057,4.6172,4.6218,4.632,4.643,4.654,4.6609,4.6718,4.684,4.6874,4.6885,4.6886,4.6886,4.6894,4.6963,4.6969,4.6902,4.6902,4.6902,0,0,4.5397,4.5509,4.5566,4.5742,4.5833,4.5934,4.5968,4.6074,4.615,4.6234,4.6361,4.644,4.657,4.6695,4.6755,4.6761,4.692,4.6891,4.6889,4.6898,4.6968,4.6974,4.6979,4.6905,4.6904,4.6904,0,0,4.5439,4.5534,4.5627,4.5717,4.5854,4.5935,4.5957,4.6107,4.6163,4.6293,4.6358,4.6449,4.6636,4.6725,4.6795,4.687,4.6914,4.6903,4.6905,4.6971,4.6977,4.6982,4.7008,4.7016,4.6911,4.6911,4.691,0,4.5415,4.5571,4.5669,4.5772,4.5847,4.5928,4.6023,4.6105,4.627,4.632,4.6324,4.6559,4.6652,4.6799,4.6817,4.6872,4.6899,4.6885,4.6968,4.6974,4.6981,4.7006,4.7016,4.6908,4.6908,4.6909,4.6909,0,4.5534,4.5641,4.57,4.5858,4.594,4.6037,4.6148,4.622,4.6274,4.6353,4.6484,4.6599,4.6731,4.6771,4.6825,4.6926,4.6925,4.6947,4.6953,4.6983,4.7009,4.702,4.6905,4.6906,4.6906,4.6907,0,0,4.5531,4.5742,4.5761,4.5833,4.5991,4.6075,4.6176,4.6307,4.6365,4.6476,4.6563,4.6718,4.674,4.6819,4.6884,4.6942,4.6993,4.6958,4.6963,4.6959,4.711,4.7091,4.7101,4.7023,4.7026,4.7028,4.7098,0,4.5593,4.5778,4.5868,4.6013,4.6113,4.6192,4.628,4.6385,4.6462,4.6558,4.6643,4.6751,4.6772,4.682,4.6882,4.6974,4.7024,4.697,4.7104,4.7108,4.7068,4.7115,4.7095,4.7156,4.7109,4.7111,4.7113,0,4.5689,4.58,4.5955,4.61,4.6145,4.6223,4.6349,4.644,4.656,4.6612,4.67,4.6763,4.6872,4.6871,4.7021,4.6982,4.7042,4.7096,4.7101,4.7115,4.7111,4.7129,4.7178,4.7187,4.713,4.7128,4.7127,0,4.5669,4.5858,4.5975,4.6034,4.6206,4.6259,4.6333,4.6453,4.6525,4.6636,4.6683,4.6805,4.6871,4.6963,4.7057,4.7047,4.7198,4.7205,4.7243,4.7241,4.727,4.7267,4.7328,4.7311,4.7311,4.7311,4.731,0,4.5728,4.5819,4.5968,4.604,4.6144,4.6247,4.6347,4.6427,4.6533,4.6621,4.6697,4.6778,4.6897,4.6993,4.7067,4.718,4.721,4.7254,4.7272,4.7247,4.7241,4.7287,4.7284,4.7313,4.7313,4.7312,4.7312,0,4.5723,4.5827,4.5959,4.6112,4.6152,4.6222,4.6352,4.6424,4.6505,4.6616,4.6647,4.6774,4.6891,4.6994,4.7148,4.7198,4.7313,4.7336,4.7272,4.7282,4.7314,4.7309,4.7406,4.7424,4.7395,4.7395,4.7395,0,4.5753,4.5826,4.5985,4.605,4.6123,4.6226,4.6301,4.6405,4.6479,4.6621,4.6676,4.6798,4.6901,4.7084,4.7189,4.7307,4.7334,4.7359,4.7352,4.7323,4.7333,4.7327,4.7334,4.7358,4.7358,4.7358,4.7358,0,4.5795,4.5842,4.5947,4.6069,4.6156,4.6257,4.6361,4.6409,4.6532,4.6612,4.6732,4.6812,4.6969,4.7089,4.7219,4.7295,4.7347,4.736,4.7375,4.7348,4.7308,4.7329,4.727,4.7357,4.7357,4.7357,4.7357,4.7357,4.5808,4.5875,4.5998,4.6112,4.6201,4.6296,4.6371,4.6461,4.6564,4.67,4.6755,4.6877,4.6996,4.7176,4.7251,4.7348,4.7357,4.7379,4.7385,4.7388,4.7383,4.7293,4.7372,4.7372,4.7373,4.7373,4.7373,0,4.5852,4.5935,4.6039,4.6182,4.6271,4.6312,4.6429,4.65,4.6607,4.6714,4.6814,4.6951,4.7068,4.7183,4.7305,4.7361,4.7387,4.7389,4.7385,4.7402,4.7368,4.7342,4.7365,4.7365,4.7365,4.7365,4.7365,4.7365,4.5886,4.6002,4.6064,4.6224,4.6307,4.6427,4.649,4.6578,4.6663,4.6814,4.6911,4.6985,4.7095,4.7226,4.7335,4.7366,4.7407,4.7402,4.7439,4.7405,4.7404,4.7404,4.738,4.741,4.7411,4.7465,4.7465,4.7466]},{"header":{"parameterUnit":"m.s-1","parameterCategory":1,"la1":30.2991,"la2":30.254,"lo1":-89.0895,"lo2":-89.0444,"dy":0.0017,"dx":0.0017,"nx":28,"ny":28,"refTime":"2024-05-01T21:00:00:Z","depth":0,"parameterNumber":3,"parameterNumberName":"V-component_of_WINDS"},"data":[0,0,0,0,0,0,0,0,0,0,0,0,0,0,0,0,0,0,0,0,0,0,0,0,0,0,0,0,0,0,0,0,0,0,0,0,0,0,0,0,0,0,0,0,0,0,0,0,0,0,0,0,0,0,0,0,0,0,6.6221,6.622,0,6.6088,6.6087,6.6085,6.5924,6.5922,6.5919,6.5917,6.5774,6.5772,6.5771,0,0,0,0,0,0,0,0,0,0,0,0,0,6.6331,6.633,6.6221,6.622,6.6218,6.6088,6.6086,6.6085,6.5925,6.5922,6.5919,6.5916,6.5774,6.5773,6.5771,0,0,0,0,0,0,0,0,0,0,0,0,0,6.6249,6.6329,6.6222,6.6123,6.6113,6.6089,6.6086,6.6084,6.5925,6.5922,6.5918,6.5915,6.5775,6.5773,6.5771,6.5831,0,0,6.5764,6.5763,0,0,0,0,0,0,0,0,6.6254,6.6245,6.6139,6.6129,6.6118,6.6019,6.6072,6.5999,6.5926,6.5996,6.5917,6.5913,6.5858,6.5849,6.5832,6.5824,6.5818,6.5763,6.5762,6.5761,6.576,0,0,0,0,0,0,0,6.626,6.625,6.6168,6.6138,6.6125,6.6083,6.6067,6.6058,6.5949,6.599,6.5978,6.5965,6.5851,6.5834,6.5827,6.5816,6.5763,6.5761,6.576,6.5759,6.585,6.5853,0,0,0,0,0,0,6.6281,6.6256,6.6172,6.6164,6.6178,6.6084,6.6066,6.6055,6.5949,6.593,6.5968,6.5958,6.584,6.583,6.5821,6.5884,6.5761,6.5759,6.5758,6.5846,6.585,6.5855,0,0,0,0,0,0,6.6284,6.6275,6.6178,6.6207,6.6191,6.6086,6.6074,6.6054,6.6036,6.5933,6.5912,6.5971,6.5837,6.5825,6.583,6.5877,6.5758,6.5756,6.5841,6.5847,6.5853,6.6012,0,0,0,0,0,0,6.6288,6.6277,6.6301,6.6209,6.619,6.6191,6.6077,6.6054,6.6034,6.6019,6.593,6.5911,6.5833,6.5834,6.5828,6.5872,6.5754,6.5837,6.5844,6.5851,6.6002,6.6022,6.604,0,0,0,0,0,6.6293,6.635,6.6303,6.6294,6.6218,6.6194,6.6184,6.6094,6.6038,6.606,6.5993,6.5914,6.5874,6.5836,6.5827,6.5872,6.5833,6.5842,6.585,6.5993,6.6018,6.6039,0,0,0,0,0,0,6.6448,6.6336,6.6282,6.6312,6.6264,6.6167,6.6192,6.6123,6.6089,6.6076,6.5964,6.5945,6.5964,6.5918,6.5879,6.5924,6.5842,6.5849,6.5953,6.5976,6.5995,6.6005,6.5752,0,0,0,0,0,6.6486,6.6478,6.638,6.6415,6.6394,6.6298,6.6284,6.622,6.6165,6.6143,6.6076,6.6024,6.5999,6.5985,6.5956,6.5995,6.5972,6.602,6.6039,6.6055,6.6062,6.6078,6.6098,6.5882,6.5882,6.5882,0,0,6.6563,6.6501,6.6503,6.6445,6.64,6.6393,6.6282,6.6279,6.6271,6.6141,6.6143,6.6093,6.6027,6.6049,6.6055,6.6011,6.6117,6.6066,6.608,6.6078,6.6089,6.6109,6.6127,6.5888,6.5887,6.5886,0,0,6.6701,6.6655,6.6678,6.6637,6.6571,6.6507,6.6513,6.6427,6.6389,6.6389,6.6292,6.628,6.624,6.6197,6.617,6.6292,6.6217,6.6286,6.6384,6.64,6.6417,6.6432,6.6474,6.6491,6.6293,6.6294,6.6294,0,6.6806,6.6793,6.6699,6.6702,6.6679,6.6564,6.6586,6.6549,6.6477,6.6463,6.6415,6.6363,6.631,6.632,6.635,6.6332,6.6334,6.6295,6.6423,6.6436,6.6448,6.6488,6.6504,6.6302,6.6301,6.6301,6.63,0,6.6924,6.6916,6.6943,6.6879,6.6859,6.6872,6.6778,6.6768,6.6706,6.6646,6.6647,6.658,6.6536,6.6533,6.6471,6.6534,6.6509,6.6444,6.6359,6.6479,6.6514,6.6529,6.6315,6.6312,6.6309,6.6307,0,0,6.7154,6.704,6.7051,6.702,6.694,6.6931,6.6939,6.6898,6.6891,6.6845,6.6847,6.6816,6.6756,6.6725,6.6657,6.6672,6.6771,6.6604,6.66,6.6637,6.6835,6.6884,6.6903,6.6722,6.6724,6.6726,6.684,0,6.7277,6.7285,6.7201,6.7231,6.7222,6.7112,6.7118,6.7069,6.7013,6.6995,6.6932,6.6912,6.6834,6.6815,6.6825,6.6758,6.681,6.6748,6.672,6.672,6.674,6.6921,6.6973,6.7084,6.6853,6.6855,6.6857,0,6.742,6.7386,6.7416,6.7334,6.7327,6.7334,6.729,6.7275,6.7216,6.7174,6.7141,6.7064,6.7062,6.6983,6.6978,6.6939,6.6922,6.6887,6.6889,6.6882,6.6796,6.6918,6.7117,6.7134,6.6878,6.6876,6.6875,0,6.7585,6.7545,6.7558,6.7535,6.744,6.7448,6.7408,6.7346,6.7326,6.7287,6.7273,6.7233,6.7211,6.718,6.7093,6.7044,6.7098,6.7012,6.7061,6.7064,6.7077,6.7077,6.7275,6.7068,6.7068,6.7068,6.7068,0,6.773,6.7752,6.763,6.7638,6.7659,6.7562,6.7585,6.7534,6.7479,6.7473,6.7375,6.7372,6.7258,6.724,6.7172,6.7178,6.7168,6.7133,6.7114,6.7141,6.7146,6.7128,6.7118,6.7072,6.7071,6.707,6.707,0,6.7917,6.7837,6.7843,6.7754,6.7732,6.7751,6.7673,6.7675,6.7614,6.7608,6.7601,6.7504,6.7478,6.7389,6.734,6.7294,6.7321,6.7286,6.7342,6.733,6.7384,6.738,6.7577,6.7597,6.738,6.7382,6.7384,0,6.8015,6.803,6.7943,6.7933,6.7899,6.7884,6.7865,6.7769,6.7752,6.7686,6.7696,6.7663,6.7631,6.7595,6.7518,6.748,6.7443,6.7514,6.7436,6.7463,6.7442,6.7443,6.7443,6.7531,6.7534,6.7536,6.7538,0,6.8196,6.8156,6.8133,6.8096,6.8076,6.8042,6.8002,6.7999,6.7891,6.7877,6.7851,6.7827,6.7779,6.7747,6.7697,6.7652,6.7577,6.7564,6.7573,6.76,6.7632,6.7615,6.7387,6.7559,6.7557,6.7556,6.7554,6.7554,6.834,6.8348,6.8289,6.8266,6.8226,6.8191,6.8189,6.8128,6.8106,6.8061,6.8005,6.7986,6.7924,6.785,6.7812,6.7793,6.7752,6.7766,6.7769,6.7774,6.7786,6.7636,6.7784,6.7783,6.7782,6.7782,6.7781,0,6.8515,6.8472,6.8453,6.8401,6.8383,6.8316,6.8268,6.8257,6.8242,6.8193,6.8165,6.8134,6.8103,6.8024,6.7984,6.7985,6.7949,6.7977,6.7976,6.7967,6.7826,6.7822,6.8007,6.8007,6.8007,6.8007,6.8007,6.8007,6.8605,6.8615,6.8568,6.8557,6.8512,6.8495,6.8473,6.8439,6.8399,6.8371,6.8345,6.8295,6.8233,6.8188,6.8156,6.8133,6.8122,6.8162,6.8128,6.7998,6.7976,6.7956,6.7951,6.8161,6.8161,6.827,6.8271,6.8271]}]]